TimeCDT,TemperatureF,Dew PointF,Humidity,Sea Level PressureIn,VisibilityMPH,Wind Direction,Wind SpeedMPH,Gust SpeedMPH,PrecipitationIn,Events,Conditions,WindDirDegrees,DateUTC
12:35 AM,28.4,24.8,86,29.99,10.0,WSW,6.9,-,N/A,,Clear,240,2013-03-12 05:35:00
12:55 AM,28.4,24.8,86,29.99,10.0,WSW,4.6,-,N/A,,Clear,240,2013-03-12 05:55:00
1:15 AM,28.4,26.6,93,30.00,10.0,WSW,6.9,-,N/A,,Clear,240,2013-03-12 06:15:00
1:35 AM,30.2,26.6,86,29.99,10.0,West,10.4,-,N/A,,Clear,260,2013-03-12 06:35:00
1:55 AM,30.2,26.6,86,29.98,10.0,WSW,15.0,-,N/A,,Clear,250,2013-03-12 06:55:00
2:15 AM,32.0,26.6,80,29.98,10.0,West,12.7,-,N/A,,Mostly Cloudy,260,2013-03-12 07:15:00
2:35 AM,33.8,24.8,70,29.98,10.0,West,13.8,-,N/A,,Mostly Cloudy,260,2013-03-12 07:35:00
2:55 AM,33.8,24.8,70,29.98,10.0,WSW,13.8,-,N/A,,Mostly Cloudy,250,2013-03-12 07:55:00
3:15 AM,33.8,24.8,70,29.99,10.0,West,16.1,-,N/A,,Scattered Clouds,260,2013-03-12 08:15:00
3:35 AM,32.0,24.8,75,29.99,10.0,West,15.0,-,N/A,,Scattered Clouds,270,2013-03-12 08:35:00
3:55 AM,33.8,23.0,65,30.00,10.0,West,21.9,28.8,N/A,,Scattered Clouds,280,2013-03-12 08:55:00
4:15 AM,33.8,23.0,65,29.99,10.0,West,23.0,-,N/A,,Partly Cloudy,280,2013-03-12 09:15:00
4:35 AM,33.8,23.0,65,30.00,10.0,WNW,27.6,39.1,N/A,,Scattered Clouds,290,2013-03-12 09:35:00
4:55 AM,32.0,24.8,75,30.01,10.0,WNW,23.0,28.8,N/A,,Overcast,290,2013-03-12 09:55:00
5:15 AM,32.0,21.2,64,30.02,10.0,NW,28.8,36.8,N/A,,Overcast,310,2013-03-12 10:15:00
5:35 AM,30.2,19.4,64,30.02,10.0,WNW,24.2,34.5,N/A,,Overcast,290,2013-03-12 10:35:00
5:55 AM,30.2,21.2,69,30.03,10.0,WNW,19.6,29.9,N/A,,Overcast,290,2013-03-12 10:55:00
6:15 AM,30.2,21.2,69,30.04,10.0,WNW,19.6,28.8,N/A,,Overcast,290,2013-03-12 11:15:00
6:35 AM,30.2,21.2,69,30.04,10.0,WNW,27.6,36.8,N/A,,Overcast,290,2013-03-12 11:35:00
6:55 AM,30.2,21.2,69,30.05,10.0,WNW,27.6,39.1,N/A,,Overcast,300,2013-03-12 11:55:00
7:15 AM,30.2,21.2,69,30.06,10.0,WNW,19.6,29.9,N/A,,Overcast,300,2013-03-12 12:15:00
7:35 AM,30.2,23.0,75,30.06,10.0,WNW,29.9,38.0,N/A,,Overcast,290,2013-03-12 12:35:00
7:55 AM,30.2,21.2,69,30.06,10.0,WNW,29.9,36.8,N/A,,Overcast,300,2013-03-12 12:55:00
8:15 AM,30.2,21.2,69,30.07,10.0,WNW,32.2,36.8,N/A,,Overcast,290,2013-03-12 13:15:00
8:35 AM,28.4,19.4,69,30.08,10.0,WNW,31.1,38.0,N/A,,Overcast,290,2013-03-12 13:35:00
8:55 AM,28.4,19.4,69,30.09,10.0,WNW,32.2,39.1,N/A,,Overcast,300,2013-03-12 13:55:00
9:15 AM,28.4,19.4,69,30.10,10.0,WNW,31.1,34.5,N/A,,Overcast,300,2013-03-12 14:15:00
9:35 AM,28.4,19.4,69,30.11,10.0,WNW,27.6,36.8,N/A,,Overcast,300,2013-03-12 14:35:00
9:55 AM,28.4,19.4,69,30.12,10.0,WNW,32.2,40.3,N/A,,Overcast,300,2013-03-12 14:55:00
10:15 AM,28.4,19.4,69,30.12,10.0,WNW,31.1,38.0,N/A,,Overcast,300,2013-03-12 15:15:00
10:35 AM,28.4,17.6,64,30.13,10.0,WNW,31.1,36.8,N/A,,Overcast,300,2013-03-12 15:35:00
10:55 AM,30.2,17.6,60,30.14,10.0,NW,31.1,41.4,N/A,,Overcast,310,2013-03-12 15:55:00
11:15 AM,28.4,19.4,69,30.15,10.0,NW,26.5,35.7,N/A,,Overcast,310,2013-03-12 16:15:00
11:35 AM,28.4,19.4,69,30.16,10.0,WNW,28.8,39.1,N/A,,Overcast,300,2013-03-12 16:35:00
11:55 AM,28.4,19.4,69,30.16,10.0,WNW,28.8,34.5,N/A,,Overcast,300,2013-03-12 16:55:00
12:15 PM,28.4,17.6,64,30.18,10.0,NW,27.6,36.8,N/A,,Overcast,310,2013-03-12 17:15:00
12:35 PM,30.2,19.4,64,30.18,10.0,WNW,32.2,38.0,N/A,,Overcast,300,2013-03-12 17:35:00
12:55 PM,28.4,17.6,64,30.19,10.0,NW,29.9,35.7,N/A,,Mostly Cloudy,310,2013-03-12 17:55:00
1:15 PM,30.2,17.6,60,30.20,10.0,WNW,27.6,36.8,N/A,,Scattered Clouds,300,2013-03-12 18:15:00
1:35 PM,28.4,21.2,74,30.20,7.0,WNW,24.2,33.4,N/A,,Mostly Cloudy,300,2013-03-12 18:35:00
1:55 PM,28.4,21.2,74,30.21,6.0,NW,24.2,34.5,N/A,,Mostly Cloudy,310,2013-03-12 18:55:00
2:15 PM,30.2,19.4,64,30.21,10.0,NW,28.8,34.5,N/A,,Mostly Cloudy,310,2013-03-12 19:15:00
2:35 PM,30.2,17.6,60,30.21,10.0,NW,26.5,36.8,N/A,,Scattered Clouds,310,2013-03-12 19:35:00
2:55 PM,28.4,19.4,69,30.21,10.0,NW,25.3,35.7,N/A,,Scattered Clouds,310,2013-03-12 19:55:00
3:15 PM,30.2,19.4,64,30.22,10.0,NW,23.0,32.2,N/A,,Scattered Clouds,320,2013-03-12 20:15:00
3:35 PM,28.4,19.4,69,30.22,9.0,NW,21.9,33.4,N/A,,Partly Cloudy,320,2013-03-12 20:35:00
3:55 PM,28.4,21.2,74,30.23,6.0,NW,23.0,28.8,N/A,,Scattered Clouds,320,2013-03-12 20:55:00
4:15 PM,28.4,21.2,74,30.23,8.0,NW,23.0,31.1,N/A,,Scattered Clouds,310,2013-03-12 21:15:00
4:35 PM,30.2,19.4,64,30.24,10.0,NW,24.2,33.4,N/A,,Mostly Cloudy,320,2013-03-12 21:35:00
4:55 PM,28.4,19.4,69,30.24,10.0,NW,25.3,31.1,N/A,,Mostly Cloudy,320,2013-03-12 21:55:00
5:15 PM,28.4,21.2,74,30.25,7.0,NW,21.9,27.6,N/A,,Mostly Cloudy,310,2013-03-12 22:15:00
5:35 PM,28.4,21.2,74,30.25,7.0,NW,21.9,29.9,N/A,,Mostly Cloudy,310,2013-03-12 22:35:00
5:55 PM,28.4,19.4,69,30.26,10.0,NW,19.6,26.5,N/A,,Scattered Clouds,320,2013-03-12 22:55:00
6:15 PM,28.4,19.4,69,30.25,9.0,WNW,25.3,29.9,N/A,,Mostly Cloudy,300,2013-03-12 23:15:00
6:35 PM,28.4,17.6,64,30.26,10.0,NNW,18.4,29.9,N/A,,Mostly Cloudy,330,2013-03-12 23:35:00
6:55 PM,26.6,19.4,74,30.26,10.0,NW,15.0,-,N/A,,Mostly Cloudy,320,2013-03-12 23:55:00
7:15 PM,26.6,19.4,74,30.27,10.0,NW,17.3,21.9,N/A,,Mostly Cloudy,320,2013-03-13 00:15:00
7:35 PM,26.6,17.6,69,30.27,10.0,NW,17.3,24.2,N/A,,Mostly Cloudy,320,2013-03-13 00:35:00
7:55 PM,26.6,17.6,69,30.28,10.0,NW,17.3,24.2,N/A,,Mostly Cloudy,320,2013-03-13 00:55:00
8:15 PM,26.6,17.6,69,30.28,10.0,NW,15.0,-,N/A,,Mostly Cloudy,310,2013-03-13 01:15:00
8:35 PM,26.6,19.4,74,30.28,10.0,NW,9.2,-,N/A,,Scattered Clouds,320,2013-03-13 01:35:00
8:55 PM,24.8,19.4,80,30.29,10.0,NW,10.4,-,N/A,,Clear,320,2013-03-13 01:55:00
9:15 PM,24.8,17.6,74,30.29,10.0,NW,12.7,-,N/A,,Clear,320,2013-03-13 02:15:00
9:35 PM,24.8,19.4,80,30.30,10.0,NW,10.4,-,N/A,,Clear,310,2013-03-13 02:35:00
9:55 PM,24.8,17.6,74,30.31,10.0,NW,9.2,-,N/A,,Clear,310,2013-03-13 02:55:00
10:15 PM,23.0,17.6,80,30.31,10.0,NW,10.4,-,N/A,,Clear,320,2013-03-13 03:15:00
10:35 PM,23.0,17.6,80,30.31,10.0,NW,10.4,-,N/A,,Clear,320,2013-03-13 03:35:00
10:55 PM,21.2,17.6,86,30.32,10.0,NW,6.9,-,N/A,,Clear,320,2013-03-13 03:55:00
11:15 PM,21.2,15.8,80,30.31,10.0,NW,10.4,-,N/A,,Clear,320,2013-03-13 04:15:00
11:35 PM,21.2,17.6,86,30.32,10.0,NW,9.2,-,N/A,,Clear,310,2013-03-13 04:35:00
11:55 PM,19.4,15.8,86,30.32,10.0,WNW,6.9,-,N/A,,Clear,300,2013-03-13 04:55:00